Retour au catalogue

STARLINK-37796

ActifCommunicationsVLEO
NORAD 100053·PAYLOAD·🇺🇸 United States

Lancé Jul 14, 2026 depuis Cape Canaveral Space Force Station

Loading…

Prochains Passages (prochaines 24 heures)

TLE

FraisSource: Space-Track

Époque: Sep 14, 2026, 15:32 UTC

1 A0053U 26161AB  26257.64755994  .00018044  00000-0  54369-3 0  9992
2 A0053  53.1612  24.9517 0001270  86.2807 273.8340 15.34410700  9716

Suivez STARLINK-37796 en temps réel avec AllMySat

Download on the App Store